EW3821 Weather Reports


time (UTC)temp
C
wind
direction
speed
KPH
gust
KPH
rain 1hr
cm
rain 24hr
cm
rain mn
cm
humidity
%
barometer
mb
20260506091516 2 132 0.0 0.0 0.00 0.15 0.00 88 1015.9
20260506090014 3 132 0.0 3.2 0.00 0.15 0.00 87 1015.8
20260506084611 3 132 0.0 6.4 0.00 0.15 0.00 86 1015.7
20260506083052 5 131 0.0 3.2 0.00 0.15 0.00 84 1015.5
20260506081529 5 131 1.6 4.8 0.00 0.15 0.00 82 1015.4
20260506073008 6 126 14.5 20.9 0.00 0.15 0.00 81 1015.1
20260506071549 6 129 11.3 20.9 0.00 0.15 0.00 83 1015.3
20260506061507 6 159 0.0 0.0 0.03 0.15 0.15 84 1015.8
20260506044512 5 50 0.0 0.0 0.00 0.13 0.13 80 1014.1
20260506043004 6 50 0.0 0.0 0.00 0.13 0.13 79 1014.0
20260506041557 6 50 0.0 0.0 0.00 0.13 0.13 78 1014.0
20260506040043 7 50 0.0 0.0 0.00 0.13 0.13 75 1013.8
20260506034536 7 50 0.0 0.0 0.00 0.13 0.13 75 1013.5
20260506033025 7 50 0.0 3.2 0.00 0.13 0.13 73 1013.3
20260506031508 8 312 0.0 4.8 0.00 0.13 0.13 69 1013.2
20260506030007 10 311 0.0 0.0 0.00 0.13 0.13 62 1012.8
20260506024606 11 311 0.0 1.6 0.00 0.13 0.13 60 1012.7
20260506023109 12 311 0.0 4.8 0.00 0.13 0.13 58 1012.6
20260506021554 12 321 1.6 8.0 0.00 0.13 0.13 54 1012.5
20260506020056 12 286 1.6 11.3 0.00 0.13 0.13 52 1012.6
20260506014554 12 311 3.2 12.9 0.00 0.13 0.13 54 1012.4
20260506013057 12 336 8.0 16.1 0.00 0.13 0.13 54 1012.5
20260506011556 12 317 9.7 19.3 0.00 0.13 0.13 55 1012.4
20260506010052 12 325 6.4 24.1 0.00 0.13 0.13 53 1012.3
20260506004534 12 342 16.1 24.1 0.00 0.13 0.13 52 1012.3
20260506003034 13 343 9.7 22.5 0.00 0.13 0.13 52 1012.3
20260506001522 13 315 12.9 22.5 0.00 0.13 0.13 51 1012.2
20260506000021 13 298 8.0 17.7 0.00 0.20 0.13 50 1012.2
20260505234521 13 292 8.0 16.1 0.00 0.20 0.13 49 1012.1
20260505233026 13 300 0.0 6.4 0.00 0.20 0.13 51 1012.2
20260505231522 13 290 0.0 6.4 0.00 0.20 0.13 50 1012.3
20260505230019 13 227 0.0 11.3 0.00 0.28 0.13 48 1012.3
20260505224519 14 264 0.0 9.7 0.00 0.28 0.13 47 1012.4
20260505223014 13 252 0.0 11.3 0.00 0.28 0.13 49 1012.6
20260505221511 12 273 0.0 6.4 0.00 0.28 0.13 54 1012.9
20260505220056 11 298 0.0 3.2 0.00 0.28 0.13 57 1013.0
20260505214549 11 286 3.2 6.4 0.00 0.41 0.13 59 1013.2
20260505213033 10 299 0.0 9.7 0.00 0.41 0.13 63 1013.3
20260505211525 10 283 0.0 4.8 0.00 0.41 0.13 68 1013.4
20260505210006 9 298 0.0 3.2 0.00 0.51 0.13 71 1013.4
20260505204505 8 277 0.0 6.4 0.00 0.51 0.13 74 1013.2
20260505203043 8 284 3.2 11.3 0.00 0.51 0.13 78 1013.3
20260505201539 6 294 8.0 16.1 0.00 0.51 0.13 85 1013.4
20260505200031 6 306 6.4 14.5 0.00 0.51 0.13 85 1013.5
20260505194516 5 313 8.0 19.3 0.03 0.51 0.13 86 1013.6
20260505193104 5 306 6.4 12.9 0.03 0.51 0.13 88 1013.5
20260505191607 5 323 12.9 17.7 0.03 0.51 0.13 87 1013.6
20260505190043 5 311 6.4 16.1 0.05 0.51 0.13 87 1013.2
20260505184539 5 319 8.0 16.1 0.03 0.51 0.10 88 1013.0
20260505183039 5 342 6.4 16.1 0.03 0.51 0.10 87 1012.6
20260505181539 5 327 8.0 14.5 0.03 0.51 0.10 88 1012.7
20260505180032 5 315 6.4 16.1 0.00 0.51 0.08 88 1012.3
20260505174529 4 320 9.7 16.1 0.03 0.51 0.08 88 1011.9
20260505173026 4 321 11.3 22.5 0.03 0.51 0.08 88 1011.5
20260505171526 4 342 12.9 24.1 0.03 0.51 0.08 88 1011.3
20260505170007 5 301 11.3 19.3 0.05 0.51 0.08 88 1011.2
20260505164505 5 304 8.0 16.1 0.03 0.48 0.05 87 1011.1
20260505163045 4 324 4.8 12.9 0.03 0.48 0.05 88 1010.7
20260505161546 4 325 8.0 14.5 0.03 0.48 0.05 88 1010.5
20260505153013 4 319 8.0 19.3 0.00 0.46 0.03 89 1010.1
20260505151506 4 311 8.0 12.9 0.00 0.46 0.03 90 1010.0
20260505124517 2 156 1.6 4.8 0.00 0.43 0.00 92 1008.4
20260505123001 3 157 1.6 3.2 0.00 0.43 0.00 92 1008.8
20260505121601 3 157 0.0 0.0 0.00 0.43 0.00 92 1008.8
20260505120118 3 156 0.0 3.2 0.00 0.43 0.00 92 1009.1
20260505114559 3 156 0.0 0.0 0.00 0.43 0.00 92 1009.0
20260505113116 3 156 0.0 1.6 0.00 0.43 0.00 92 1009.1
20260505111558 3 156 0.0 1.6 0.00 0.43 0.00 92 1008.9
20260505110118 3 156 1.6 4.8 0.00 0.43 0.00 93 1008.9
20260505101543 3 163 1.6 3.2 0.00 0.43 0.00 92 1009.0
20260505100017 3 164 0.0 3.2 0.00 0.43 0.00 92 1009.1
20260505094514 3 164 0.0 1.6 0.00 0.43 0.00 92 1009.1
20260505093057 3 163 0.0 0.0 0.00 0.43 0.00 92 1009.2